Flag Weather past 2 weeks in Gdańsk, Poland

Now
41 °F

Passing clouds.


Feels Like: 39 °F
Forecast: 33 / 40 °F
Wind: 3 mph from Northwest

Location: Gdansk-Rebiechowo

Current Time: Nov 22, 2014 at 4:33:00 PM

Latest Report: Nov 22, 2014 at 4:00 PM


Visibility: N/A

Pressure: 30.33 "Hg

Humidity: 93%

Dew point: 39 °F

Location of GdańskLocation

Historic Weather in Gdańsk — Graph

°F

Gdańsk temperature yesterday

Maximum temperature yesterday: 41 °F (at 12:00 PM)
Minimum temperature yesterday: 36 °F (at 12:00 AM)
Average temperature yesterday: 39 °F

Past Weeks' High & Low Weather Summary

 TemperatureHumidityPressure
High52 °F (Nov 10, 12:30 PM)100% (Nov 7, 6:30 PM)30.33 "Hg (Nov 7, 6:30 PM)
Low30 °F (Nov 8, 11:30 PM)75% (Nov 19, 12:30 AM)29.80 "Hg (Nov 7, 3:00 PM)
Average41 °F96%30.05 "Hg
* Reported Nov 7 3:00 PM — Nov 22 3:30 PM, Gdańsk, Weather by CustomWeather, © 2014

Note: Actual official high and low records may vary slightly from our data, if they occured in-between our weather recording intervals... More about our weather records

Advertising

Gdańsk weather history for previous 24 hours

 ConditionsComfort  
Time TempWeatherWind HumidityBarometerVisibility
3:30 PM
Nov 22
43 °FPartly sunny.3 mph87%30.33 "Hg5 mi
3:00 PM43 °FBroken clouds.3 mph93%30.33 "Hg5 mi
2:30 PM43 °FBroken clouds.2 mph93%30.33 "HgN/A
2:00 PM43 °FPartly sunny.2 mph93%30.33 "HgN/A
1:30 PM43 °FPartly sunny.6 mph87%30.30 "HgN/A
1:00 PM43 °FPartly sunny.7 mph93%30.30 "HgN/A
12:30 PM43 °FPartly sunny.5 mph93%30.30 "Hg5 mi
12:00 PM43 °FPartly sunny.5 mph93%30.30 "Hg4 mi
11:30 AM43 °FPartly sunny.6 mph93%30.30 "Hg4 mi
11:00 AM43 °FFog.7 mph93%30.30 "Hg3 mi
10:30 AM41 °FFog.7 mph100%30.30 "Hg2 mi
10:00 AM41 °FFog.6 mph100%30.30 "Hg2 mi
9:30 AM41 °FFog.5 mph100%30.30 "Hg2 mi
9:00 AM41 °FFog.3 mph100%30.30 "Hg2 mi
8:30 AM41 °FFog.3 mph100%30.30 "Hg1 mi
8:00 AM41 °FDrizzle. Fog.5 mph93%30.27 "Hg1 mi
7:30 AM39 °FFog.5 mph100%30.27 "Hg2 mi
7:00 AM39 °FFog.3 mph100%30.27 "Hg2 mi
6:30 AM39 °FDrizzle. Fog.3 mph100%30.27 "Hg2 mi
6:00 AM39 °FFog.3 mph100%30.27 "Hg3 mi
5:30 AM39 °FPassing clouds.2 mph100%30.27 "Hg4 mi
5:00 AM39 °FPassing clouds.2 mph100%30.27 "Hg4 mi
4:30 AM39 °FFog.6 mph100%30.27 "Hg3 mi
4:00 AM39 °FDrizzle. Fog.3 mph100%30.27 "Hg3 mi
3:30 AM39 °FFog.2 mph100%30.27 "Hg3 mi
3:00 AM39 °FFog.2 mph100%30.27 "Hg3 mi
2:30 AM39 °FPassing clouds.3 mph100%30.27 "Hg4 mi
2:00 AM39 °FPassing clouds.5 mph100%30.27 "Hg4 mi
1:30 AM39 °FPassing clouds.5 mph100%30.27 "Hg4 mi
1:00 AM39 °FPassing clouds.5 mph100%30.30 "Hg4 mi
12:30 AM39 °FPassing clouds.3 mph93%30.27 "Hg4 mi
12:00 AM39 °FPassing clouds.3 mph93%30.27 "Hg4 mi
11:30 PM
Nov 21
39 °FPassing clouds.3 mph93%30.27 "Hg5 mi
11:00 PM39 °FPassing clouds.2 mph93%30.30 "Hg5 mi
10:30 PM39 °FPassing clouds.3 mph93%30.30 "Hg4 mi
10:00 PM39 °FPassing clouds.3 mph93%30.30 "Hg4 mi
9:30 PM39 °FPassing clouds.5 mph93%30.30 "Hg4 mi
9:00 PM39 °FPassing clouds.3 mph93%30.30 "Hg4 mi
8:30 PM39 °FPassing clouds.5 mph93%30.27 "Hg4 mi
8:00 PM39 °FPassing clouds.5 mph93%30.27 "Hg6 mi
7:30 PM39 °FFog.5 mph93%30.27 "Hg2 mi
7:00 PM39 °FPassing clouds.2 mph93%30.27 "Hg4 mi
6:30 PM39 °FFog.3 mph93%30.27 "Hg2 mi
6:00 PM39 °FFog.3 mph93%30.27 "Hg2 mi
5:30 PM39 °FFog.3 mph93%30.27 "Hg3 mi
5:00 PM39 °FPassing clouds.5 mph93%30.27 "Hg4 mi
4:30 PM39 °FPassing clouds.3 mph93%30.27 "Hg4 mi
4:00 PM41 °FFog.3 mph87%30.27 "Hg3 mi
Weather by CustomWeather, © 2014

See weather overviewHow to use our weather pages